TimeEST,TemperatureF,Dew PointF,Humidity,Sea Level PressureIn,VisibilityMPH,Wind Direction,Wind SpeedMPH,Gust SpeedMPH,PrecipitationIn,Events,Conditions,WindDirDegrees,DateUTC
12:54 AM,32.0,30.0,92,29.90,7.0,SSW,6.9,-,N/A,,Clear,200,2013-01-17 05:54:00
2:54 AM,28.9,27.0,92,29.93,5.0,SSW,4.6,-,N/A,,Clear,210,2013-01-17 07:54:00
4:54 AM,30.0,27.0,88,29.92,10.0,SSW,4.6,-,N/A,,Clear,210,2013-01-17 09:54:00
5:54 AM,34.0,26.1,73,29.96,10.0,West,5.8,-,N/A,,Mostly Cloudy,260,2013-01-17 10:54:00
6:54 AM,34.0,26.1,73,29.98,10.0,SW,5.8,-,N/A,,Clear,220,2013-01-17 11:54:00
7:54 AM,34.0,26.1,73,29.99,10.0,Calm,Calm,-,N/A,,Mostly Cloudy,0,2013-01-17 12:54:00
8:54 AM,35.1,27.0,72,30.02,10.0,SW,3.5,-,N/A,,Clear,230,2013-01-17 13:54:00
9:54 AM,36.0,27.0,70,30.05,10.0,West,8.1,-,N/A,,Clear,260,2013-01-17 14:54:00
10:54 AM,37.0,27.0,67,30.05,10.0,Variable,5.8,23.0,N/A,,Mostly Cloudy,0,2013-01-17 15:54:00
11:54 AM,37.9,26.1,62,30.04,10.0,Variable,4.6,-,N/A,,Partly Cloudy,0,2013-01-17 16:54:00
1:54 PM,39.0,25.0,57,30.03,10.0,WNW,8.1,-,N/A,,Mostly Cloudy,290,2013-01-17 18:54:00
2:54 PM,39.0,26.1,60,30.04,10.0,WNW,4.6,-,N/A,,Mostly Cloudy,290,2013-01-17 19:54:00
3:54 PM,37.9,24.1,57,30.04,10.0,NNW,5.8,-,N/A,,Mostly Cloudy,340,2013-01-17 20:54:00
4:54 PM,37.9,23.0,55,30.06,10.0,NNW,5.8,-,N/A,,Partly Cloudy,330,2013-01-17 21:54:00
5:54 PM,36.0,23.0,59,30.09,10.0,NNW,6.9,-,N/A,,Scattered Clouds,330,2013-01-17 22:54:00
6:54 PM,35.1,23.0,61,30.11,10.0,NW,3.5,-,N/A,,Partly Cloudy,320,2013-01-17 23:54:00
7:54 PM,34.0,19.9,56,30.09,10.0,NNW,5.8,-,N/A,,Partly Cloudy,330,2013-01-18 00:54:00
8:54 PM,32.0,21.0,64,30.08,10.0,NNE,8.1,-,N/A,,Overcast,30,2013-01-18 01:54:00
9:54 PM,28.9,18.0,64,30.08,10.0,NNE,11.5,-,N/A,,Overcast,30,2013-01-18 02:54:00
10:54 PM,28.0,16.0,61,30.06,10.0,NNE,8.1,-,N/A,,Overcast,30,2013-01-18 03:54:00
11:54 PM,27.0,15.1,61,30.09,10.0,NE,5.8,-,N/A,,Overcast,50,2013-01-18 04:54:00